TimeEDT,TemperatureF,Dew PointF,Humidity,Sea Level PressureIn,VisibilityMPH,Wind Direction,Wind SpeedMPH,Gust SpeedMPH,PrecipitationIn,Events,Conditions,WindDirDegrees,DateUTC
12:54 AM,64.0,62.1,93,30.03,10.0,Calm,Calm,-,N/A,,Clear,0,2013-06-12 04:54:00
1:54 AM,63.0,62.1,97,30.02,10.0,Calm,Calm,-,N/A,,Clear,0,2013-06-12 05:54:00
2:54 AM,62.1,61.0,96,30.01,10.0,NW,4.6,-,N/A,,Clear,320,2013-06-12 06:54:00
3:54 AM,63.0,61.0,93,30.01,10.0,North,3.5,-,N/A,,Clear,350,2013-06-12 07:54:00
4:54 AM,63.0,61.0,93,30.01,10.0,NNW,8.1,-,N/A,,Clear,340,2013-06-12 08:54:00
5:54 AM,63.0,60.1,90,30.01,10.0,North,5.8,-,N/A,,Clear,350,2013-06-12 09:54:00
6:54 AM,63.0,60.1,90,30.02,10.0,NW,5.8,-,N/A,,Clear,320,2013-06-12 10:54:00
7:54 AM,66.9,60.1,79,30.03,10.0,NNW,6.9,-,N/A,,Clear,340,2013-06-12 11:54:00
8:54 AM,70.0,61.0,73,30.04,10.0,Calm,Calm,-,N/A,,Clear,0,2013-06-12 12:54:00
9:54 AM,73.0,64.0,73,30.04,10.0,NNW,6.9,-,N/A,,Clear,340,2013-06-12 13:54:00
10:54 AM,79.0,68.0,69,30.04,10.0,NNW,6.9,-,N/A,,Clear,340,2013-06-12 14:54:00
11:54 AM,78.1,69.1,74,30.04,10.0,South,3.5,-,N/A,,Clear,190,2013-06-12 15:54:00
12:54 PM,82.9,71.1,67,30.02,10.0,West,3.5,-,N/A,,Clear,270,2013-06-12 16:54:00
1:54 PM,88.0,66.9,49,29.99,10.0,NNW,9.2,19.6,N/A,,Partly Cloudy,330,2013-06-12 17:54:00
2:54 PM,88.0,64.9,46,29.99,10.0,NNW,13.8,-,N/A,,Clear,340,2013-06-12 18:54:00
3:54 PM,89.1,64.9,45,29.98,10.0,NNW,10.4,-,N/A,,Partly Cloudy,330,2013-06-12 19:54:00
4:54 PM,89.1,64.9,45,29.97,10.0,North,9.2,-,N/A,,Clear,350,2013-06-12 20:54:00
5:54 PM,88.0,66.9,49,29.95,10.0,NNW,5.8,-,N/A,,Clear,340,2013-06-12 21:54:00
6:54 PM,87.1,64.0,46,29.95,10.0,North,6.9,-,N/A,,Clear,360,2013-06-12 22:54:00
7:54 PM,84.0,64.9,53,29.96,10.0,North,4.6,-,N/A,,Clear,360,2013-06-12 23:54:00
8:54 PM,79.0,69.1,72,29.95,10.0,Calm,Calm,-,N/A,,Clear,0,2013-06-13 00:54:00
9:54 PM,77.0,68.0,74,29.96,10.0,Calm,Calm,-,N/A,,Clear,0,2013-06-13 01:54:00
10:54 PM,73.9,69.1,85,29.95,10.0,Calm,Calm,-,N/A,,Clear,0,2013-06-13 02:54:00
11:54 PM,70.0,68.0,93,29.95,10.0,Calm,Calm,-,N/A,,Clear,0,2013-06-13 03:54:00